Regional Weather Roundup
Issued by NWS

Home | Current Version | Previous Version | Graphics & Text | Print | Product List | Glossary On
Versions: 1 2 3 4 5 6 7 8 9 10 11 12 13 14 15 16 17 18 19 20 21 22 23 24 25 26 27 28
000
ASUS45 KSLC 250210
RWRUT

UTAH REGIONAL WEATHER ROUNDUP
NATIONAL WEATHER SERVICE SALT LAKE CITY UT
800 PM MDT SAT JUN 24 2017

UTZ001>011-023>025-250300-

NORTHERN UTAH

CITY           SKY/WX    TMP DP  RH WIND       PRES   REMARKS
BRIGHAM CITY   SUNNY     83  26  12 S5        30.14S
HILL AFB       NOT AVBL
LOGAN          SUNNY     83  45  26 N5        30.15R
OGDEN          CLEAR     83  32  16 NW3       30.14S
SALT LAKE CITY CLEAR     86  22   9 N6        30.12S
TOOELE VALLEY  CLEAR     81  30  16 CALM      30.15S
WENDOVER         N/A     87  24  10 E7        30.12S
HEBER CITY     CLEAR     79  21  11 N13       30.19S
WEST JORDAN    CLEAR     82  43  24 NW6       30.16S

$$

UTZ011>015-024>027-250300-

CENTRAL/NORTHEAST UTAH

CITY           SKY/WX    TMP DP  RH WIND       PRES   REMARKS
PROVO AIRPORT  CLEAR     82  44  26 NW12      30.14S
MOAB/CANYONLAN CLEAR     94   9   4 NE6       30.02R
DELTA          CLEAR     86  19   8 N10       30.12F
PRICE          CLEAR     83  16   8 NW18G24   30.18S
RICHFIELD      CLEAR     84  27  12 NW5       30.16R
VERNAL         CLEAR     84  29  13 N3        30.15S

$$

UTZ013>016-019>022-027-250300-

SOUTHERN UTAH

CITY           SKY/WX    TMP DP  RH WIND       PRES   REMARKS
BRYCE CANYON   CLOUDY    78  13   8 NW10      30.32R
CEDAR CITY     CLEAR     87  20   8 N10       30.14S
MILFORD        CLEAR     89  20   8 NE15      30.11S
ST GEORGE      CLEAR    104  26   6 NE21      29.82F HX  96
HANKSVILLE     CLEAR     95  18   6 E7        30.03S
KANAB          CLEAR     91  28  10 NW8G15    30.07R
BLANDING       CLEAR     82  26  13 N13       30.20S

$$

REGIONAL REPORTS     COLORADO/ARIZONA

CITY           SKY/WX    TMP DP  RH WIND       PRES   REMARKS
CRAIG, CO      CLEAR     74  25  16 N3        30.27R
GRAND JUNCTION CLEAR     88  23   9 NE9       30.08R
RIFLE, CO      CLEAR     82  25  12 N12       30.18R
MONTROSE, CO   CLEAR     84  30  14 NW12      30.15R
CORTEZ, CO     CLEAR     87  -1   3 N13G23    30.13R
COLORADO CITY    N/A     95  30  10 N6        30.06R
PAGE, AZ       CLEAR     99  26   7 NE10      29.95R HX  92
GRAND CANYON   MOCLDY    89  21   8 NW7       30.20R
KINGMAN, AZ    PTCLDY   106  31   7 NW8       29.89R HX  99
FLAGSTAFF, AZ  MOCLDY    85  24  11 SW9       30.22R

$$

REGIONAL REPORTS    NEVADA/IDAHO/WYOMING

CITY           SKY/WX    TMP DP  RH WIND       PRES   REMARKS
LAS VEGAS, NV  MOSUNNY  111  10   3 VRB5      29.76S HX 101
ELY, NY        SUNNY     87  33  14 N9        30.20S
ELKO, NV       SUNNY     89  19   7 NW8       30.15S
POCATELLO, ID  MOSUNNY   82  39  21 CALM      30.18S
BURLEY, ID     SUNNY     79  37  22 SW10      30.14S
FORT BRIDGER,    N/A     76  28  16 NW7       30.35R
EVANSTON, WY   CLEAR     73  38  27 W12       30.33R
ROCK SPRINGS,  CLEAR     73  25  16 NW8       30.30S
KEMMERER, WY     N/A     70  32  24 NW10      30.35S

$$




USA.gov is the U.S. government's official web portal to all federal, state and local government web resources and services.